Location: Mentone
(34.5413°N, 85.5351°W)
Time: 07:22:26
(UTC-05:00)

Okean O Rocket - Visible Passes

Search period start: 24 September 2017 00:00
Search period end: 04 October 2017 00:00
Orbit: 622 x 646 km, 98.1° (Epoch: 23 September)

Date Brightness Start Highest point End Pass type
(mag) Time Alt. Az. Time Alt. Az. Time Alt. Az.
24 Sep 1.5 04:41:43 10° NNE 04:46:05 84° ESE 04:47:42 38° S visible
25 Sep 4.6 03:30:08 10° E 03:31:02 11° E 03:31:57 10° ESE visible
25 Sep 1.7 05:03:26 10° N 05:07:40 53° WNW 05:09:31 30° SW visible
26 Sep 3.9 03:49:43 10° NE 03:52:51 19° E 03:53:52 18° ESE visible
26 Sep 2.4 05:25:26 10° N 05:29:13 29° WNW 05:31:20 20° WSW visible
27 Sep 3.1 04:10:38 10° NNE 04:14:36 34° E 04:15:41 30° SE visible
27 Sep 3.1 05:47:49 10° NNW 05:50:40 17° WNW 05:53:08 11° WSW visible
28 Sep 1.9 04:31:58 10° NNE 04:36:17 63° E 04:37:30 43° SSE visible
29 Sep 1.4 04:53:34 10° N 04:57:55 71° WNW 04:59:18 42° SSW visible
30 Sep 4.3 03:40:32 10° ENE 03:43:00 15° E 03:43:39 14° ESE visible
30 Sep 2.0 05:15:26 10° N 05:19:29 38° WNW 05:21:07 28° WSW visible
01 Oct 3.5 04:01:07 10° NE 04:04:46 26° E 04:05:28 25° ESE visible
01 Oct 2.8 05:37:36 10° NNW 05:40:59 22° WNW 05:42:55 17° WSW visible
02 Oct 2.5 04:22:16 10° NNE 04:26:29 47° E 04:27:15 42° SE visible
02 Oct 3.4 06:00:24 10° NW 06:02:25 13° WNW 06:04:25 10° W visible
03 Oct 1.5 04:43:46 10° NNE 04:48:08 87° ESE 04:49:04 56° S visible
